Location: Walnut Point State Park
(39.6958°N, 88.0345°W)
Time: 16:37:36
(UTC-05:00)

Cosmos 1833 Rocket - Visible Passes

Search period start: 02 June 2015 00:00
Search period end: 12 June 2015 00:00
Orbit: 832 x 840 km, 71.0° (Epoch: 02 June)

Date Brightness Start Highest point End Pass type
(mag) Time Alt. Az. Time Alt. Az. Time Alt. Az.
02 Jun 4.6 02:40:38 14° SE 02:43:29 21° ESE 02:47:37 10° NE visible
02 Jun 3.0 04:22:21 14° SW 04:27:03 52° WNW 04:32:33 10° NNE visible
03 Jun 4.6 02:24:36 15° SE 02:26:53 19° E 02:30:47 10° ENE visible
03 Jun 2.9 04:06:19 18° SW 04:10:24 57° WNW 04:15:57 10° NNE visible
04 Jun 4.6 02:08:32 15° ESE 02:10:17 17° E 02:13:56 10° ENE visible
04 Jun 2.8 03:50:14 23° SW 03:53:45 62° WNW 03:59:20 10° NNE visible
05 Jun 4.7 01:52:25 14° ESE 01:53:41 16° E 01:57:01 10° ENE visible
05 Jun 2.8 03:34:07 28° SW 03:37:05 67° WNW 03:42:43 10° NNE visible
06 Jun 4.8 01:36:16 14° ESE 01:37:05 14° E 01:40:04 10° ENE visible
06 Jun 2.7 03:17:58 34° SW 03:20:27 73° WNW 03:26:05 10° NNE visible
07 Jun 4.9 01:20:04 13° ESE 01:20:30 13° E 01:23:02 10° ENE visible
07 Jun 2.6 03:01:46 41° SSW 03:03:48 79° WNW 03:09:28 10° NNE visible
07 Jun 4.8 04:46:16 10° WNW 04:48:49 13° NW 04:51:06 10° NNW visible
08 Jun 4.9 01:03:50 11° E 01:03:54 11° E 01:05:50 10° ENE visible
08 Jun 2.6 02:45:32 49° SSW 02:47:09 86° WNW 02:52:50 10° NNE visible
08 Jun 4.8 04:29:11 10° WNW 04:32:05 14° NW 04:34:44 10° NNW visible
09 Jun 5.0 00:47:35 10° E 00:47:35 10° E 00:48:10 10° E visible
09 Jun 2.6 02:29:16 56° SSW 02:30:31 88° ESE 02:36:11 10° NNE visible
09 Jun 4.7 04:12:09 10° W 04:15:21 15° NW 04:18:19 10° NNW visible
10 Jun 2.6 02:12:58 63° S 02:13:53 81° ESE 02:19:32 10° NNE visible
10 Jun 4.7 03:55:09 10° W 03:58:37 16° NW 04:01:53 10° NNW visible
11 Jun 2.6 01:56:38 67° SSE 01:57:14 75° ESE 02:02:53 10° NNE visible
11 Jun 4.7 03:38:20 10° W 03:41:54 17° NW 03:45:25 10° N visible
